Date String (YYYY-MM-DD hh:mm:ss) UTC,Instrument flags,absolute air pressure of the measurement (hPa),sample flow rate (lpm),inlet stack bypass flow (lpm),air temperature of the measurement (°C),ambient temperature measured by the external sensor (°C),aerosol sample conditioner tube jacket temperature (°C),OPC LED temperature (°C),internal box temperature (°C),relative humidity of the measurement (%),span deviation,mass concentration of particles derived from Lorenz-Mie calculation of OPC scattering (μg/m³),mass concentration of particles derived from Lorenz-Mie calculation of OPC scattering (μg/m³),mass concentration of particles derived from Lorenz-Mie calculation of OPC scattering (μg/m³)
DateTimeUTC,F1_M11,P_M11,Q1_M11,Q2_M11,T1_M11,T2_M11,T3_M11,T4_M11,T5_M11,U1_M11,ZSPAN_M11,X0_M11,X2_M11,X1_M11
2024-01-24 04:00:00,SystemResetWarning,0825.9,4.99,000.00,025.7,024.6,000.0,034.0,027.0,15.4,0000.0,0012.07,0005.79,0005.15
2024-01-24 04:01:00,SystemResetWarning,0825.9,5.00,000.00,025.6,024.6,000.0,034.0,027.0,15.4,0000.0,0012.34,0005.83,0005.17
2024-01-24 04:02:00,SystemResetWarning,0825.9,4.99,000.00,025.6,024.6,000.0,034.0,027.0,15.4,0000.0,0012.47,0005.82,0005.18
2024-01-24 04:03:00,SystemResetWarning,0825.9,5.01,000.00,025.6,024.5,000.0,034.0,027.0,15.4,0000.0,0012.58,0005.81,0005.18
2024-01-24 04:04:00,SystemResetWarning,0826.0,5.01,000.00,025.6,024.5,000.0,034.0,027.0,15.4,0000.0,0012.69,0005.80,0005.17
2024-01-24 04:05:00,SystemResetWarning,0826.0,5.01,000.00,025.6,024.5,000.0,034.0,027.0,15.5,0000.0,0012.31,0005.77,0005.17
2024-01-24 04:06:00,SystemResetWarning,0826.0,5.00,000.00,025.6,024.5,000.0,034.0,027.0,15.5,0000.0,0011.87,0005.81,0005.19
2024-01-24 04:07:00,SystemResetWarning,0826.0,5.00,000.00,025.6,024.4,000.0,034.0,027.0,15.5,0000.0,0010.49,0005.86,0005.27
2024-01-24 04:08:00,SystemResetWarning,0826.0,4.99,000.00,025.6,024.4,000.0,034.0,026.9,15.5,0000.0,0010.71,0005.96,0005.36
2024-01-24 04:09:00,SystemResetWarning,0826.0,5.00,000.00,025.6,024.4,000.0,034.0,026.9,15.5,0000.0,0011.25,0006.15,0005.51
2024-01-24 04:10:00,SystemResetWarning,0826.1,5.01,000.00,025.6,024.4,000.0,034.0,026.9,15.5,0000.6,0011.45,0006.31,0005.66
2024-01-24 04:11:00,SystemResetWarning,0826.1,5.00,000.00,025.6,024.4,000.0,034.0,026.9,15.5,0002.1,0011.53,0006.46,0005.82
2024-01-24 04:12:00,SystemResetWarning,0826.1,4.99,000.00,025.6,024.4,000.0,034.0,026.9,15.5,0002.0,0011.41,0006.59,0005.97
2024-01-24 04:13:00,SystemResetWarning,0826.1,4.99,000.00,025.6,024.4,000.0,033.9,026.9,15.5,0001.7,0011.33,0006.74,0006.11
2024-01-24 04:14:00,SystemResetWarning,0826.1,5.00,000.00,025.5,024.4,000.0,033.9,026.9,15.4,0002.1,0011.56,0006.93,0006.26
2024-01-24 04:15:00,SystemResetWarning,0826.1,4.99,000.00,025.5,024.3,000.0,033.9,026.9,15.4,0002.4,0011.33,0007.12,0006.42
2024-01-24 04:16:00,SystemResetWarning,0826.1,5.00,000.00,025.5,024.3,000.0,033.9,026.9,15.5,0002.7,0011.61,0007.30,0006.58
2024-01-24 04:17:00,SystemResetWarning,0826.1,5.00,000.00,025.5,024.3,000.0,033.9,026.9,15.5,0002.6,0012.48,0007.52,0006.77
2024-01-24 04:18:00,SystemResetWarning,0826.1,5.01,000.00,025.5,024.3,000.0,033.9,026.9,15.5,0002.5,0013.45,0007.66,0006.91
2024-01-24 04:19:00,SystemResetWarning,0826.1,5.00,000.00,025.5,024.3,000.0,033.9,026.9,15.5,0002.6,0013.68,0007.80,0007.04
2024-01-24 04:20:00,SystemResetWarning,0826.1,5.00,000.00,025.5,024.2,000.0,033.9,026.8,15.5,0002.6,0013.92,0007.90,0007.16
2024-01-24 04:21:00,SystemResetWarning,0826.1,5.00,000.00,025.5,024.3,000.0,033.9,026.8,15.5,0002.5,0014.69,0007.99,0007.24
2024-01-24 04:22:00,SystemResetWarning,0826.1,4.99,000.00,025.5,024.3,000.0,033.9,026.8,15.5,0002.4,0014.89,0008.06,0007.30
2024-01-24 04:23:00,SystemResetWarning,0826.1,5.00,000.00,025.5,024.2,000.0,033.9,026.8,15.6,0002.4,0015.00,0008.12,0007.34
2024-01-24 04:24:00,SystemResetWarning,0826.1,5.01,000.00,025.5,024.2,000.0,033.9,026.8,15.6,0002.5,0015.27,0008.20,0007.39
2024-01-24 04:25:00,SystemResetWarning,0826.0,5.00,000.00,025.5,024.2,000.0,033.8,026.8,15.7,0002.2,0015.73,0008.26,0007.42
2024-01-24 04:26:00,SystemResetWarning,0826.0,5.01,000.00,025.5,024.2,000.0,033.8,026.8,15.7,0001.5,0015.97,0008.30,0007.47
2024-01-24 04:27:00,SystemResetWarning,0826.1,5.00,000.00,025.5,024.2,000.0,033.8,026.8,15.7,0000.9,0015.96,0008.35,0007.52
2024-01-24 04:28:00,SystemResetWarning,0826.0,5.00,000.00,025.5,024.2,000.0,033.8,026.8,15.7,0000.6,0015.77,0008.35,0007.53
2024-01-24 04:29:00,SystemResetWarning,0826.0,5.00,000.00,025.4,024.2,000.0,033.8,026.8,15.7,0000.8,0015.66,0008.40,0007.55
2024-01-24 04:30:00,SystemResetWarning,0826.0,4.99,000.00,025.4,024.2,000.0,033.8,026.8,15.7,0000.6,0015.88,0008.44,0007.57
2024-01-24 04:31:00,SystemResetWarning,0826.0,4.99,000.00,025.4,024.1,000.0,033.8,026.8,15.7,0000.2,0015.46,0008.47,0007.59
2024-01-24 04:32:00,SystemResetWarning,0826.0,5.00,000.00,025.4,024.1,000.0,033.8,026.7,15.8,0000.3,0014.88,0008.50,0007.62
2024-01-24 04:33:00,SystemResetWarning,0826.0,5.00,000.00,025.4,024.1,000.0,033.8,026.7,15.8,0000.3,0015.17,0008.50,0007.67
2024-01-24 04:34:00,SystemResetWarning,0826.1,5.00,000.00,025.4,024.1,000.0,033.8,026.7,15.8,0000.8,0015.54,0008.55,0007.74
2024-01-24 04:35:00,SystemResetWarning,0826.1,5.00,000.00,025.4,024.1,000.0,033.8,026.7,15.8,0000.9,0016.11,0008.60,0007.80
2024-01-24 04:36:00,SystemResetWarning,0826.2,5.00,000.00,025.4,024.1,000.0,033.8,026.7,15.8,0001.1,0016.87,0008.64,0007.84
2024-01-24 04:37:00,SystemResetWarning,0826.2,5.00,000.00,025.4,024.1,000.0,033.7,026.7,15.8,0001.2,0017.94,0008.68,0007.89
2024-01-24 04:38:00,SystemResetWarning,0826.2,5.00,000.00,025.4,024.1,000.0,033.7,026.7,15.9,0001.5,0017.91,0008.69,0007.91
2024-01-24 04:39:00,SystemResetWarning,0826.2,5.00,000.00,025.3,024.1,000.0,033.7,026.7,16.0,0002.1,0018.08,0008.68,0007.90
2024-01-24 04:40:00,SystemResetWarning,0826.2,5.00,000.00,025.3,024.1,000.0,033.7,026.7,16.0,0002.2,0017.50,0008.63,0007.87
2024-01-24 04:41:00,SystemResetWarning,0826.2,5.00,000.00,025.3,024.1,000.0,033.7,026.7,16.0,0002.5,0016.97,0008.57,0007.80
2024-01-24 04:42:00,SystemResetWarning,0826.2,4.99,000.00,025.3,024.1,000.0,033.7,026.7,16.0,0002.8,0016.78,0008.46,0007.73
2024-01-24 04:43:00,SystemResetWarning,0826.2,5.00,000.00,025.3,024.1,000.0,033.7,026.7,16.0,0002.9,0016.76,0008.38,0007.64
2024-01-24 04:44:00,SystemResetWarning,0826.2,5.00,000.00,025.3,024.1,000.0,033.7,026.7,16.0,0003.1,0016.10,0008.30,0007.55
2024-01-24 04:45:00,SystemResetWarning,0826.2,5.00,000.00,025.3,024.1,000.0,033.7,026.7,16.0,0002.7,0015.79,0008.21,0007.46
2024-01-24 04:46:00,SystemResetWarning,0826.2,5.00,000.00,025.3,024.1,000.0,033.7,026.7,16.0,0002.6,0015.14,0008.12,0007.36
2024-01-24 04:47:00,SystemResetWarning,0826.2,5.00,000.00,025.3,024.1,000.0,033.7,026.7,16.0,0002.5,0014.17,0008.02,0007.27
2024-01-24 04:48:00,SystemResetWarning,0826.2,5.00,000.00,025.3,024.1,000.0,033.7,026.7,16.0,0002.8,0012.66,0007.92,0007.19
2024-01-24 04:49:00,SystemResetWarning,0826.2,5.00,000.00,025.3,024.1,000.0,033.7,026.7,16.0,0002.8,0012.40,0007.82,0007.13
2024-01-24 04:50:00,SystemResetWarning,0826.2,5.00,000.00,025.3,024.1,000.0,033.7,026.7,16.1,0002.5,0012.00,0007.77,0007.10
2024-01-24 04:51:00,SystemResetWarning,0826.2,5.00,000.00,025.3,024.1,000.0,033.7,026.7,16.1,0002.5,0011.52,0007.74,0007.06
2024-01-24 04:52:00,SystemResetWarning,0826.2,5.00,000.00,025.3,024.1,000.0,033.7,026.7,16.1,0002.3,0011.51,0007.73,0007.07
2024-01-24 04:53:00,SystemResetWarning,0826.2,4.99,000.00,025.3,024.0,000.0,033.6,026.7,16.1,0002.2,0011.73,0007.79,0007.09
2024-01-24 04:54:00,SystemResetWarning,0826.2,5.01,000.00,025.3,024.0,000.0,033.6,026.6,16.3,0002.1,0012.24,0007.78,0007.10
2024-01-24 04:55:00,SystemResetWarning,0826.2,5.00,000.00,025.3,024.0,000.0,033.6,026.6,16.3,0002.0,0012.71,0007.75,0007.09
2024-01-24 04:56:00,SystemResetWarning,0826.2,5.00,000.00,025.2,024.0,000.0,033.6,026.6,16.3,0002.0,0013.24,0007.72,0007.05
2024-01-24 04:57:00,SystemResetWarning,0826.2,5.00,000.00,025.2,024.0,000.0,033.6,026.6,16.2,0002.0,0013.09,0007.68,0007.03
2024-01-24 04:58:00,SystemResetWarning,0826.2,4.99,000.00,025.2,024.0,000.0,033.6,026.6,16.2,0002.1,0012.84,0007.61,0007.00
2024-01-24 04:59:00,SystemResetWarning,0826.1,5.00,000.00,025.2,023.9,000.0,033.6,026.6,16.4,0002.0,0012.69,0007.55,0006.94
